RH
62 41 34 42 47 47 50 43 36 63 52 57 45 49 52 74 64 65 99 94 78 97 98 68 94 91 82 72 71 73 79 85 90 94 95 99 100 97 86 89 84 89 82 85 82 86 94 94 97
51 33 46 76 52 55 48 41 38 59 66 66 64 67 68 87 80 94 96 99 76 82 82 72 91 77 60 68 81 90 93 93 90 84 73 68 65 59 47 46 43 41 39 39 42 45 48 54 64
55 54 60 58 58 56 48 42 47 75 71 67 73 70 77 89 80 88 97 93 74 68 61 83 79 65 78 88 96 90 82 76 68 55 47 45 53 56 45 32 32 35 39 54 55 52 43 33 28
45 57 52 55 60 51 43 36 72 76 70 67 68 80 79 83 80 95 99 82 63 64 76 85 67 86 94 95 84 77 67 52 47 41 34 34 47 60 59 39 45 58 70 75 77 78 81 79 81
53 58 62 65 56 48 42 47 70 70 70 72 67 94 88 89 92 100 90 68 52 74 76 72 86 95 93 81 73 57 48 42 36 29 25 32 58 55 41 46 65 75 77 76 75 75 78 79 80
62 59 68 69 57 47 47 60 61 71 74 76 79 86 85 99 100 98 74 60 63 75 86 97 96 91 80 69 52 45 39 33 26 26 28 32 36 38 37 38 40 54 62 66 72 73 74 74 74
68 67 65 62 55 47 46 62 60 72 76 75 74 86 94 99 99 81 66 67 93 97 100 96 90 82 65 49 44 40 31 27 29 29 29 29 29 30 30 28 28 33 43 67 77 80 81 80 61
68 65 59 60 52 44 45 58 60 70 77 73 73 82 92 89 100 88 91 99 100 100 94 91 83 63 48 45 41 33 28 30 31 31 30 30 28 25 25 27 30 36 43 47 66 76 66 53 55
56 68 67 55 53 40 52 60 65 74 81 88 87 77 78 100 99 96 99 100 100 100 93 85 65 49 47 42 36 30 31 34 32 32 31 26 25 25 30 38 42 46 46 46 54 59 60 62 60
68 78 66 44 41 40 48 58 70 76 87 91 91 97 98 99 96 98 100 100 100 97 88 70 54 49 46 39 32 32 35 33 33 32 27 26 26 30 36 40 44 46 48 55 60 62 62 60 59
70 71 61 49 46 42 40 62 69 77 86 78 85 96 95 96 97 92 97 99 92 90 74 61 53 48 45 36 30 33 35 34 34 30 29 30 27 28 34 40 44 48 53 57 60 62 64 64 64
70 63 59 51 46 43 45 60 73 68 66 64 76 86 89 94 96 97 98 96 91 80 67 58 48 46 42 32 31 34 34 34 33 29 33 33 27 30 36 44 51 56 58 61 63 66 65 61 62
64 56 53 47 47 44 42 58 65 71 88 80 87 85 86 89 92 96 93 86 86 73 63 53 46 45 40 31 34 35 34 35 31 34 36 34 31 31 39 48 56 59 62 65 68 68 65 63 62
68 64 58 50 46 40 50 54 56 83 91 94 88 87 87 88 91 86 81 81 79 68 57 48 46 44 34 33 35 35 35 34 34 38 38 36 38 37 38 47 55 60 65 68 70 71 67 67 63
68 59 55 50 39 41 47 55 59 90 92 92 88 88 90 89 86 79 76 76 74 64 52 47 46 40 34 33 35 36 36 35 38 40 40 40 44 42 42 46 55 61 65 67 65 68 68 67 64
58 51 67 45 40 38 49 64 76 86 89 91 90 90 91 88 83 79 73 69 67 58 50 49 46 39 35 36 37 36 40 40 41 43 42 44 48 46 46 48 53 59 63 64 67 71 71 70 68
62 72 62 44 41 42 52 59 82 88 87 87 90 91 90 88 82 80 71 65 62 56 53 51 47 40 37 37 38 38 44 47 46 44 44 47 49 48 50 52 54 59 63 63 68 72 74 79 70
77 66 56 51 41 47 54 56 96 91 88 90 88 91 90 89 83 80 77 67 61 61 61 53 49 42 39 40 41 41 46 48 46 44 47 48 50 51 53 54 57 61 66 66 68 72 74 74 72
60 54 52 45 36 48 58 58 89 94 95 87 90 93 92 91 88 83 77 76 70 66 59 54 49 44 41 42 44 44 46 45 45 47 48 49 51 52 55 56 59 65 69 72 72 70 76 80 72
74 66 53 39 38 50 67 71 62 88 87 86 87 91 92 94 88 89 82 75 72 65 59 56 52 48 44 42 42 43 44 46 47 48 48 50 51 52 55 58 61 64 70 74 72 74 80 82 75
67 71 56 47 45 46 60 70 70 64 70 90 93 92 93 92 90 86 86 78 70 64 59 56 52 48 44 46 47 49 50 50 49 48 49 51 48 50 54 58 63 62 68 75 78 76 75 81 78
73 60 56 43 65 75 52 74 52 63 61 54 85 92 90 92 89 83 83 80 71 64 61 58 52 48 48 49 50 52 50 50 47 50 51 50 47 49 54 59 60 59 65 73 79 80 78 75 81
57 51 51 49 63 63 55 73 50 52 64 61 54 78 85 86 87 85 83 75 70 64 58 54 52 51 50 50 53 55 55 54 54 56 53 47 44 46 50 55 60 62 62 70 77 82 83 83 80
53 48 57 68 81 95 60 64 64 50 54 52 53 52 69 86 88 85 82 74 68 60 54 51 49 50 50 54 57 58 57 58 60 55 49 44 42 43 48 51 55 62 65 64 69 80 84 86 86
48 65 96 92 85 89 86 74 52 36 44 45 43 48 50 76 84 82 76 72 63 57 51 47 47 51 56 59 60 61 63 62 54 49 45 43 44 45 46 48 51 54 59 64 66 72 81 83 85
65 60 82 82 81 66 67 65 54 40 38 40 41 46 56 61 70 71 69 70 64 55 50 50 53 56 60 62 64 65 59 52 48 44 42 42 45 48 48 47 48 53 57 61 64 67 72 76 80
51 65 51 70 75 65 60 46 34 36 39 44 47 45 55 51 54 59 65 68 65 58 57 55 58 59 61 62 59 54 49 42 39 38 41 45 46 46 46 47 47 50 55 60 64 65 69 73 79
62 58 67 78 67 62 57 46 56 35 28 38 49 52 51 55 57 61 67 73 65 60 60 63 62 58 56 53 48 42 38 37 40 42 42 43 45 47 48 50 54 56 59 63 66 68 70 72 75
60 65 59 56 62 63 54 60 59 47 34 35 48 53 55 61 61 68 73 72 66 64 63 62 60 54 48 43 40 38 39 41 41 41 44 46 49 51 52 53 55 56 58 62 65 70 74 76 77
50 47 53 68 49 78 74 63 39 48 49 51 55 57 60 64 66 70 73 71 67 62 59 55 50 45 42 38 37 40 41 42 43 45 46 46 45 45 44 45 46 47 49 54 58 63 69 72 74
Wind_Speed
9 9 5 4 1 1 3 4 1 4 5 1 6 4 6 3 2 2 8 9 23 21 17 16 14 15 13 12 12 12 12 11 11 11 12 12 12 11 10 9 6 10 9 10 8 8 8 10 10
6 3 2 1 2 3 4 3 5 5 5 12 9 4 3 3 2 8 11 17 23 22 18 19 14 14 13 14 13 11 12 11 9 8 9 9 9 9 9 9 8 8 8 8 8 9 10 9 8
4 1 3 4 3 6 4 4 4 5 9 2 5 4 3 5 8 14 11 24 23 21 20 18 15 15 14 13 12 11 8 8 8 8 8 8 9 10 9 9 9 9 10 10 10 10 9 9 10
1 1 2 3 8 5 4 3 6 10 1 1 7 8 3 2 16 8 23 24 23 22 21 18 17 15 14 13 11 9 8 8 7 7 8 8 8 9 10 10 10 10 11 11 12 12 11 11 11
1 1 3 4 6 3 3 1 11 7 5 3 3 4 6 3 6 22 25 24 25 23 20 19 17 15 14 12 10 9 7 7 7 7 8 8 9 8 9 10 10 10 10 11 11 11 11 11 11
1 0 3 8 6 4 3 5 10 4 3 4 6 7 6 6 19 22 25 25 24 23 20 17 17 15 13 11 9 8 7 6 7 8 9 8 8 9 9 9 10 10 11 11 11 11 11 12 12
3 2 3 6 6 5 5 8 8 6 7 5 10 7 5 10 19 24 25 24 21 21 21 19 17 15 12 10 9 7 7 7 8 8 9 9 9 9 9 10 11 11 11 12 12 12 12 13 14
3 2 1 4 11 11 6 6 5 5 3 5 2 7 7 16 21 24 23 18 22 22 19 18 16 14 12 10 8 7 7 7 8 9 9 9 9 10 10 11 11 11 11 12 13 12 13 14 13
2 2 3 2 7 6 6 5 2 3 7 2 2 3 8 26 24 23 22 21 23 20 18 17 16 13 11 8 8 6 6 7 7 8 9 10 11 11 11 11 11 11 12 13 13 13 13 13 14
2 3 6 1 3 3 5 4 12 7 7 3 3 2 27 29 26 22 18 17 20 21 18 17 14 12 9 7 7 6 6 6 7 8 9 10 11 12 12 12 12 12 13 13 13 13 13 15 16
3 4 4 3 2 4 4 4 3 11 6 8 13 15 23 27 23 22 20 24 26 22 20 17 14 12 9 7 6 6 5 6 7 8 9 10 11 11 12 12 13 14 14 15 15 15 16 16 16
1 4 2 2 3 4 2 3 5 6 3 2 15 21 22 19 21 21 19 17 25 23 20 17 13 11 9 7 7 6 5 5 6 7 8 9 11 12 13 13 13 14 14 14 15 15 16 17 16
2 3 2 4 6 7 3 4 4 6 3 11 19 19 17 16 20 20 21 27 27 25 20 18 14 11 8 7 7 6 4 4 5 6 7 9 11 12 12 13 13 13 13 14 14 16 18 19 17
2 3 5 4 6 4 2 2 3 1 6 14 20 18 16 15 20 16 18 23 26 23 20 18 15 11 9 8 7 5 4 3 4 5 6 8 10 11 12 12 12 13 13 14 15 16 17 17 17
1 2 4 4 3 3 2 2 5 3 9 15 17 14 14 14 18 20 22 27 28 24 21 17 14 11 9 8 6 5 3 3 3 4 5 7 9 10 11 12 12 13 13 13 14 14 15 16 14
2 1 3 3 6 3 2 6 2 7 13 16 13 12 12 13 18 17 23 25 26 23 20 16 14 12 10 8 6 4 3 2 1 3 4 5 7 9 10 11 12 12 13 13 13 14 15 16 12
5 1 2 2 5 3 4 4 2 5 9 14 13 12 11 11 14 14 23 24 25 22 20 17 15 13 11 8 6 4 3 1 1 1 2 3 5 7 8 10 11 11 12 12 13 13 14 15 11
3 2 2 3 2 3 3 4 2 6 7 10 12 11 10 12 13 16 21 22 23 22 19 16 15 13 11 9 7 5 4 3 2 1 1 3 4 6 7 8 9 9 10 11 11 12 12 16 13
1 2 3 3 2 4 4 3 5 5 5 10 11 12 12 12 8 14 18 20 22 21 20 18 18 15 13 11 8 6 5 4 3 2 1 2 4 6 7 7 7 7 8 10 11 11 11 11 16
1 3 3 2 2 3 3 3 1 5 10 14 14 15 13 8 8 10 14 17 20 23 21 20 18 16 14 11 9 5 5 4 4 3 2 2 6 7 7 8 7 6 6 7 9 9 7 6 14
2 4 4 4 1 4 3 3 3 3 3 7 6 7 8 13 13 10 12 17 19 20 21 20 19 17 15 13 10 7 6 4 5 6 3 5 7 7 7 7 7 6 6 5 6 7 8 6 7
3 7 5 4 2 3 2 4 4 4 5 4 7 8 10 11 7 7 13 17 21 20 18 18 17 16 15 13 11 10 8 7 6 5 4 6 6 6 5 5 6 6 6 6 5 6 6 6 5
4 1 7 2 3 4 4 3 4 1 6 10 8 9 10 10 11 11 15 22 22 20 19 18 17 16 15 13 12 11 9 7 6 4 5 5 4 5 5 5 5 5 6 6 6 5 5 4 3
3 2 4 4 3 0 4 3 5 6 10 3 6 10 11 13 7 10 16 19 21 19 19 19 18 16 15 14 13 11 10 8 6 5 5 4 4 4 5 5 5 5 6 6 6 7 6 6 6
2 5 2 2 1 4 4 0 8 4 8 8 15 17 14 9 10 10 11 16 22 23 22 20 19 18 16 15 13 11 9 8 7 6 5 5 6 5 5 6 5 5 6 6 6 7 7 7 7
1 4 4 5 3 2 2 5 6 6 5 7 6 7 7 8 10 12 15 19 24 26 23 21 20 18 17 16 14 11 9 8 6 5 5 6 6 6 6 7 7 7 7 7 7 8 8 8 8
2 1 1 6 3 1 4 5 9 7 10 6 9 6 8 13 12 13 13 20 25 26 25 23 22 19 17 16 13 11 9 7 5 4 4 3 5 5 6 7 7 7 7 7 7 7 8 9 9
4 4 2 3 2 4 4 4 6 5 11 8 8 11 8 5 6 9 14 19 26 27 24 22 21 20 17 14 12 10 7 5 4 3 2 2 2 4 4 5 5 5 6 6 6 6 7 7 8
3 2 4 3 2 3 1 6 7 8 4 7 8 8 8 8 9 8 12 19 26 25 23 23 21 19 17 14 11 9 8 6 4 3 2 1 2 3 4 5 5 5 5 5 5 5 6 7 8
4 2 5 3 4 1 2 6 2 7 5 4 8 8 6 7 10 10 13 19 23 24 23 22 20 18 15 12 11 10 8 7 6 5 5 4 3 3 4 4 5 5 6 6 6 6 6 7 8
Wind_Direction
302 316 320 25 258 72 236 238 233 160 160 164 125 156 166 62 148 153 145 145 151 146 148 144 136 135 125 117 110 105 99 93 85 80 71 66 58 53 45 45 28 25 18 14 8 4 11 17 20
310 302 73 122 167 183 231 227 213 178 139 121 95 101 88 100 121 120 136 149 153 153 151 145 145 138 124 115 108 102 98 94 86 71 58 50 43 41 36 31 26 16 4 356 349 341 336 333 327
302 203 133 170 173 200 210 203 151 124 145 162 110 48 95 110 125 140 149 148 150 148 146 145 147 133 123 117 114 106 97 85 73 61 51 46 43 42 33 24 19 14 12 12 6 360 348 335 326
235 62 56 189 193 225 214 169 144 144 126 58 118 87 80 270 147 153 147 150 147 144 143 147 137 130 130 124 115 107 93 80 66 52 44 41 45 43 35 23 21 18 18 16 12 10 10 7 1
75 79 167 186 204 218 217 229 157 147 137 138 130 125 99 105 169 148 148 150 145 144 143 139 137 136 132 123 116 105 90 73 57 47 46 45 51 37 29 26 25 22 17 10 9 9 4 4 1
92 62 177 197 196 210 227 169 152 148 120 128 95 111 138 148 142 148 151 149 145 142 141 144 143 139 133 126 117 104 87 68 54 49 49 43 38 29 22 15 11 7 5 4 6 6 2 357 354
139 125 202 166 187 171 193 156 164 151 134 176 134 120 112 154 155 154 151 148 144 147 146 144 143 140 133 125 113 101 87 73 64 56 52 43 33 24 15 11 6 1 2 7 7 5 357 352 345
115 114 201 213 183 204 166 148 159 153 150 120 132 154 168 171 156 152 147 148 152 153 148 145 143 141 135 127 113 98 85 74 65 57 48 40 31 27 22 17 16 10 9 4 1 358 352 350 353
143 87 191 209 164 186 169 144 127 105 122 72 85 149 146 151 151 146 155 154 156 152 151 150 146 142 135 125 112 99 88 75 63 52 44 40 35 29 27 27 27 23 17 14 12 11 8 3 4
126 171 198 226 293 302 204 193 150 151 142 133 96 94 139 151 155 154 156 153 154 156 155 154 151 148 141 129 114 105 94 77 59 48 42 42 34 30 27 27 29 25 21 23 18 12 7 6 5
178 202 214 198 318 321 248 154 162 138 189 193 176 158 149 156 158 166 167 168 168 163 159 159 158 155 149 137 123 114 93 71 57 46 44 40 31 30 26 26 25 22 20 19 18 13 11 7 360
196 249 228 279 344 349 320 146 172 182 161 150 151 159 153 163 164 170 171 166 166 167 164 163 165 163 153 145 136 122 97 74 56 51 44 34 32 30 28 26 25 22 20 16 13 14 7 1 358
163 303 236 293 301 304 275 233 257 184 11 128 139 157 164 161 167 176 176 175 172 169 171 168 167 167 161 153 142 127 105 79 63 50 42 32 33 32 28 28 23 22 19 16 14 9 5 2 1
160 259 279 298 294 290 261 220 147 205 132 135 150 163 166 166 168 162 170 169 174 175 173 171 167 169 165 157 148 136 110 82 75 51 39 34 33 32 28 28 22 19 18 14 9 6 3 4 4
144 287 253 253 252 307 275 173 221 155 146 151 161 162 162 165 169 175 176 178 180 180 174 174 171 169 169 164 158 142 120 99 79 41 37 35 31 30 28 27 22 17 16 11 9 8 9 10 19
201 62 170 278 194 268 148 252 161 171 163 161 162 164 163 169 176 180 185 184 184 178 179 177 177 174 172 170 164 157 146 124 78 31 32 29 24 25 23 25 21 19 15 12 12 10 13 13 27
20 225 231 265 209 146 182 247 169 172 182 174 166 169 169 168 179 179 193 192 186 184 181 181 182 178 177 177 176 178 187 203 257 10 18 10 11 15 14 18 18 15 13 15 17 18 15 13 24
234 215 231 260 240 159 182 248 184 176 199 191 170 168 180 181 189 181 193 196 193 188 186 187 185 182 183 182 186 199 215 227 207 273 336 340 348 356 354 1 5 7 10 13 16 18 18 17 12
273 213 219 213 242 151 202 219 184 200 187 202 190 168 188 192 189 190 192 196 194 190 187 189 190 187 189 186 193 212 216 205 218 225 297 334 339 333 327 334 339 349 1 10 11 14 15 13 17
43 328 256 300 347 148 175 221 217 198 213 205 197 190 174 175 188 191 193 191 196 193 191 192 194 194 195 199 201 199 188 198 213 219 245 314 329 323 319 318 314 314 339 359 8 14 13 17 28
215 198 228 210 68 58 135 336 193 200 245 218 202 196 194 187 189 186 188 197 198 199 198 196 195 197 198 200 201 193 195 212 213 203 249 312 322 320 321 313 304 300 301 325 350 6 18 16 27
217 197 226 267 104 188 335 226 254 208 221 233 216 200 211 198 174 172 190 197 202 204 203 200 197 197 199 203 205 206 210 208 210 222 276 316 321 325 328 316 305 299 283 287 313 346 2 11 16
238 172 168 109 95 62 318 70 255 127 229 228 221 226 217 212 184 190 197 202 204 203 201 198 197 197 200 207 207 209 210 217 222 249 288 306 315 322 322 317 311 305 296 288 290 301 324 331 340
158 119 65 65 90 94 233 142 276 197 207 208 229 229 218 212 176 199 204 201 199 196 194 193 193 195 199 201 204 210 215 217 228 254 273 289 312 311 311 314 310 302 298 293 286 277 282 291 291
167 82 51 3 360 206 343 29 245 257 221 210 208 217 218 202 188 186 178 184 189 189 191 191 190 187 192 197 203 209 213 219 234 251 272 295 306 306 308 315 313 305 295 288 285 276 273 282 285
71 141 154 187 186 209 26 239 249 235 256 246 226 239 206 190 197 197 192 186 187 190 189 187 184 185 190 196 199 202 207 216 229 248 275 294 302 311 314 315 315 309 301 295 289 280 275 275 276
351 215 171 105 53 90 195 272 290 261 261 256 241 230 228 210 201 193 179 189 188 188 187 186 185 186 186 187 189 194 203 212 229 252 263 282 301 310 315 315 312 308 309 307 299 294 290 285 283
194 167 156 29 159 218 275 261 222 245 233 226 236 232 240 232 192 178 180 180 186 188 185 186 187 184 182 184 188 192 198 203 204 207 231 282 313 331 338 342 341 339 335 330 324 312 303 290 287
191 221 49 102 179 187 244 257 216 231 230 247 248 238 224 209 192 184 177 175 179 180 180 178 179 178 178 180 181 184 184 180 176 168 150 106 59 34 22 18 12 8 3 352 351 343 333 317 305
170 246 159 138 212 118 141 279 219 233 226 223 267 255 224 199 186 177 177 173 174 176 175 175 174 176 177 178 180 175 169 162 153 142 131 113 90 67 51 38 27 21 19 19 13 4 355 334 326